Lapse_Rate
5.4 5.5 5.5 5.4 5.3 5.4 5.5 5.6 5.4 5.5 5.2 4.9 5.0 5.3 5.1 5.1 5.3 5.4 5.6 5.7 5.8 6.0 6.1 6.3 6.2 6.4 6.6 7.0 7.3 6.8 6.8 6.9 6.6 6.7 6.2 6.5 6.5 6.3 6.3 6.5 6.6 6.3 6.7 6.3 6.2 6.2 6.1
5.4 5.4 5.4 5.5 5.5 5.4 5.3 5.4 5.6 5.5 5.6 5.5 5.4 5.3 5.4 5.4 5.5 5.6 5.7 5.8 5.9 6.1 6.1 6.2 6.4 6.7 6.9 7.5 7.0 7.0 7.1 7.1 6.8 6.8 6.5 6.4 6.3 6.2 6.3 6.2 6.2 6.6 6.3 6.4 6.4 6.3 6.3
5.4 5.6 5.6 5.5 5.6 5.5 5.6 5.6 5.7 5.7 5.7 5.7 5.8 5.7 5.7 5.7 5.7 5.8 6.0 6.0 6.1 6.2 6.4 6.3 6.6 6.7 7.1 7.3 7.1 6.8 7.2 7.6 7.4 7.0 6.8 6.1 6.0 5.9 6.0 5.9 5.8 6.0 5.8 6.0 6.1 6.4 6.3
5.5 5.6 5.6 5.6 5.7 5.7 5.6 5.7 5.9 5.9 5.7 5.8 5.8 5.8 5.7 5.8 6.1 6.3 6.4 6.3 6.3 6.5 6.5 6.6 6.8 6.8 7.4 7.1 7.1 7.1 7.2 7.3 7.2 7.0 6.9 6.6 6.4 6.1 5.7 5.5 5.7 5.5 5.6 5.5 5.8 6.3 6.5
5.5 5.7 5.8 5.7 5.8 5.7 5.8 5.7 5.7 5.7 5.7 5.8 6.1 6.1 6.2 6.3 6.1 6.5 6.5 6.5 6.6 6.7 6.6 6.9 6.7 6.6 6.9 7.0 7.0 6.8 6.5 6.7 6.9 7.1 6.9 6.3 5.9 5.8 5.5 5.5 5.4 5.4 5.6 5.7 5.6 5.7 5.9
5.7 5.8 5.8 5.9 6.0 6.0 5.9 5.9 5.9 5.9 5.7 5.6 5.8 5.9 6.6 6.4 6.5 6.5 6.5 6.6 6.3 6.6 6.7 6.7 6.8 6.9 6.6 7.0 6.7 6.5 6.5 6.4 6.3 6.2 6.1 6.2 6.0 5.8 5.7 5.8 5.6 5.6 5.3 5.2 5.1 5.3 5.6
5.8 6.0 6.0 5.9 6.0 6.2 6.1 6.0 6.0 6.2 6.1 6.0 6.0 6.1 6.3 6.5 6.4 6.2 6.1 6.3 6.1 6.2 6.4 6.7 6.6 6.6 7.0 6.9 6.1 6.2 6.5 6.2 6.5 6.4 6.1 5.9 5.4 5.4 6.1 5.6 5.3 5.1 5.0 5.0 5.2 5.4 5.5
5.7 5.9 6.0 6.2 6.1 6.2 6.2 6.0 6.1 6.3 6.3 6.2 6.1 6.1 6.2 6.3 6.4 6.3 6.2 6.4 6.4 6.0 6.2 6.8 6.9 6.6 7.1 6.8 6.6 6.9 5.8 5.8 6.3 6.2 5.3 5.2 4.6 5.8 5.5 5.3 5.2 5.1 5.1 5.2 5.1 5.4 5.7
5.9 6.2 6.2 6.2 6.1 6.2 6.4 6.4 6.3 6.1 6.1 6.2 6.3 6.3 6.3 6.2 6.2 6.3 6.5 6.6 6.3 6.3 5.8 6.6 7.3 7.2 6.9 7.2 7.3 7.7 6.1 5.4 5.4 5.0 5.7 4.9 5.3 5.6 5.0 5.1 5.1 5.2 5.5 5.6 5.5 5.5 5.7
6.2 6.3 6.2 6.2 6.4 6.3 6.2 6.3 6.3 6.3 6.2 6.4 6.4 6.2 6.2 6.3 6.2 6.5 6.7 6.7 6.6 6.5 6.0 6.1 6.4 6.4 6.6 6.9 6.9 6.8 7.0 6.1 5.4 5.5 5.2 4.3 5.2 5.7 5.5 5.1 5.6 5.1 6.3 5.9 5.6 5.9 5.3
6.5 6.5 6.4 6.4 6.4 6.4 6.3 6.2 6.2 6.3 6.3 6.4 6.5 6.4 6.4 6.4 6.4 6.6 6.6 6.7 6.7 6.7 4.3 6.4 5.5 5.3 6.3 6.7 6.8 6.8 6.8 6.5 6.7 6.4 5.4 5.2 5.5 5.3 5.0 5.5 6.2 5.1 6.6 6.7 6.8 7.1 7.5
6.3 6.4 6.3 6.2 6.2 6.4 6.3 6.3 6.2 6.2 6.2 6.2 6.2 6.2 6.3 6.4 6.4 6.6 6.7 6.7 6.9 6.7 4.6 6.5 5.8 6.2 6.5 6.9 6.6 6.5 6.3 6.1 6.1 5.9 5.6 5.3 6.1 5.6 5.9 5.8 6.5 6.5 6.8 6.9 7.1 7.4 6.9
5.9 6.1 6.2 6.3 6.2 6.2 6.2 6.2 6.2 6.3 6.3 6.3 6.5 6.3 6.3 6.4 6.7 6.6 6.7 6.9 6.8 6.1 6.2 6.7 7.2 6.9 6.6 6.4 6.6 6.8 6.8 6.1 6.1 5.8 6.1 6.6 6.5 6.7 6.4 6.4 7.3 7.4 7.4 6.6 6.7 6.6 6.8
6.0 6.1 6.0 6.2 6.3 6.3 6.3 6.2 6.3 6.2 6.3 6.4 6.6 6.7 6.6 6.7 6.6 6.6 6.4 6.4 6.5 6.3 6.7 7.4 7.6 7.8 6.5 6.5 6.3 6.8 6.8 6.7 6.8 6.5 6.4 6.3 6.2 7.1 7.3 7.6 7.5 7.6 7.6 7.0 7.0 6.9 6.6
5.5 5.9 5.8 6.2 6.2 6.3 6.2 6.2 6.1 6.2 6.3 6.4 6.5 6.7 6.9 6.7 6.5 6.4 6.2 6.1 6.2 6.6 6.6 7.3 7.8 7.9 7.7 7.5 7.2 7.2 6.9 6.9 7.1 8.0 7.3 7.2 7.0 7.2 7.5 7.7 7.9 7.7 7.5 7.7 7.1 6.7 6.7
5.0 5.3 5.2 5.4 6.0 6.3 6.1 6.1 6.2 6.2 6.3 6.4 6.5 6.5 6.7 6.7 6.7 6.5 6.3 6.4 6.4 6.6 6.9 6.8 6.9 7.2 7.1 7.2 7.6 7.5 7.6 7.5 7.5 7.8 7.9 7.7 7.5 7.7 7.7 7.8 7.7 7.9 7.7 7.2 6.7 6.9 6.8
5.1 5.3 5.2 5.2 5.4 5.8 5.9 5.9 5.7 5.9 5.8 6.2 6.6 6.7 6.9 6.9 6.4 6.4 6.4 6.6 6.7 6.5 7.0 6.8 7.1 6.8 6.8 6.8 7.3 7.4 7.3 7.7 7.9 7.9 8.1 8.0 8.2 7.7 7.7 7.6 7.7 7.5 7.3 7.4 7.5 7.0 6.6
5.5 5.5 5.4 5.3 5.3 5.3 5.5 5.5 5.3 5.4 5.4 5.5 6.1 6.5 6.7 6.7 6.5 6.6 6.4 6.9 6.8 6.4 6.5 6.6 6.6 7.0 6.8 7.0 6.8 7.3 7.3 7.6 7.9 7.9 8.2 8.1 7.8 8.2 7.7 7.6 7.3 7.4 7.5 7.6 6.9 6.8 7.5
5.7 5.6 5.5 5.5 5.4 5.3 5.4 5.3 5.3 5.5 5.3 5.6 5.6 6.3 6.4 6.1 6.7 6.5 7.0 7.0 7.0 6.8 6.1 6.4 6.6 7.0 7.4 7.2 7.2 7.2 7.3 7.5 7.6 7.8 7.9 7.6 8.0 7.8 7.5 7.2 6.9 7.1 7.3 7.5 7.7 7.4 7.0
5.9 5.7 5.7 5.6 5.5 5.3 5.4 5.4 5.5 5.4 5.5 5.9 5.9 5.9 5.9 6.1 6.7 6.3 6.6 7.1 7.0 7.2 6.4 6.4 6.8 7.1 7.0 7.2 7.3 7.1 7.2 7.4 7.4 7.4 7.6 7.8 7.7 7.8 7.6 7.6 7.3 6.8 7.1 7.2 7.2 7.1 6.8
5.9 5.9 5.7 5.7 5.8 5.7 5.7 5.7 5.7 5.7 5.8 5.9 6.0 6.3 6.3 6.5 6.4 6.6 6.5 6.5 6.6 6.8 6.7 6.3 6.7 6.9 7.1 7.1 7.4 7.3 7.4 7.2 7.2 7.2 7.4 7.4 7.2 7.2 7.3 7.1 6.6 6.7 6.6 7.1 7.6 7.5 7.6
5.7 5.7 5.7 5.7 5.7 5.7 5.7 5.7 5.8 5.7 5.8 6.2 6.3 6.3 6.8 6.7 7.3 7.4 6.9 7.0 7.0 7.4 6.6 6.7 7.0 7.2 7.3 7.2 7.2 7.2 7.5 7.3 7.1 7.1 6.7 6.8 6.7 6.5 6.5 6.7 6.5 5.9 6.6 7.2 7.3 7.5 7.6
5.9 5.9 5.9 5.9 5.9 5.8 5.8 6.0 6.0 6.1 6.1 6.9 6.7 7.0 7.0 7.5 7.5 7.3 7.3 7.7 7.2 6.6 6.5 6.8 7.0 7.0 7.1 7.3 7.3 7.2 7.0 6.9 6.9 6.8 6.5 6.3 6.4 6.3 6.0 6.3 6.2 6.2 6.8 7.2 7.6 7.4 7.3
6.1 6.1 6.0 6.0 6.0 6.0 6.1 6.1 6.0 6.1 6.2 7.0 7.1 7.2 7.2 7.6 7.8 7.6 7.7 7.7 7.4 7.0 7.2 7.3 7.2 7.1 7.0 7.2 7.0 7.1 7.1 6.9 6.9 6.7 6.2 6.4 6.3 5.9 5.8 6.0 5.8 6.6 6.8 6.9 7.2 7.3 7.4
6.3 6.3 6.3 6.2 6.1 6.2 6.3 6.3 6.3 6.3 6.3 6.6 7.2 7.0 7.3 7.3 7.4 7.6 7.5 7.3 7.4 7.3 7.1 7.0 7.0 7.0 7.1 7.1 6.9 6.9 6.6 6.4 6.2 6.4 6.5 6.5 6.2 5.8 6.0 6.2 6.2 6.3 6.5 6.8 6.8 6.7 6.7
6.9 6.8 6.7 6.7 6.7 6.7 6.7 6.6 6.5 6.4 6.3 6.9 7.2 7.2 7.8 7.5 7.6 7.5 7.5 7.5 7.5 7.4 7.2 6.8 7.1 7.0 7.0 7.2 7.1 6.2 5.9 6.3 6.0 5.9 6.2 6.0 6.0 6.1 6.2 6.1 4.4 6.5 6.6 6.7 6.5 6.5 6.9
7.4 7.2 7.1 7.1 7.1 7.1 7.2 7.0 6.8 6.4 6.6 7.0 7.1 7.2 7.5 7.6 7.6 7.4 7.4 7.4 7.5 7.2 7.0 6.8 7.2 7.0 6.9 6.9 6.7 6.0 6.8 7.0 6.4 6.3 6.2 6.0 6.1 6.1 6.3 5.9 6.0 6.3 6.3 6.4 6.1 7.0 7.2
7.7 7.7 7.7 7.2 7.1 7.3 7.2 7.1 6.8 6.6 6.7 6.9 7.1 7.4 7.3 7.4 7.2 7.2 7.4 7.5 7.4 7.1 7.0 6.7 6.8 6.8 6.5 6.3 6.0 6.4 6.8 6.6 6.7 6.6 6.3 6.3 6.2 6.1 6.0 5.8 5.8 6.2 6.5 6.5 6.9 6.7 6.6
7.9 7.8 8.0 7.6 7.1 7.2 7.3 7.1 6.9 6.8 6.7 6.8 7.3 7.2 7.3 7.3 7.0 7.3 7.3 7.6 7.6 7.4 7.1 6.8 6.8 7.0 6.7 6.2 6.3 6.5 6.8 6.7 6.8 6.5 6.6 6.6 6.4 6.1 6.1 6.3 6.5 6.6 6.7 6.7 6.6 6.4 6.3
Wind_Speed
5 4 3 3 5 2 2 3 3 3 2 3 4 5 6 7 8 10 11 12 11 11 10 8 7 11 7 4 10 6 6 4 2 2 3 2 2 3 2 4 8 5 5 6 7 9 8
5 3 3 6 5 1 2 1 2 3 4 4 5 6 8 8 8 9 10 11 10 11 10 7 3 8 1 6 6 10 8 4 4 3 3 3 4 4 5 4 2 6 9 10 6 10 8
4 4 4 3 2 1 1 3 1 1 3 4 6 9 10 10 10 10 10 10 10 7 8 4 2 2 4 17 5 13 14 7 6 5 5 4 3 2 5 8 4 6 10 11 4 6 7
6 5 4 3 4 2 2 3 4 4 4 4 7 9 11 12 11 10 9 9 8 6 7 3 2 2 8 7 14 12 7 6 12 12 13 8 4 3 3 4 8 7 6 2 5 2 8
9 8 7 5 4 4 4 5 5 5 4 3 6 9 11 10 12 11 7 8 5 5 5 3 1 2 10 11 7 9 11 8 3 6 7 9 3 4 3 2 4 3 7 5 5 8 5
13 12 11 10 7 5 5 6 6 5 0 4 7 9 10 10 11 2 4 7 7 5 1 2 2 3 7 4 2 4 6 8 5 1 1 6 2 2 2 4 5 7 6 4 3 6 9
17 16 14 12 9 5 5 6 1 2 1 3 7 8 9 10 2 6 7 3 2 1 4 9 7 5 5 4 2 3 3 5 3 3 5 3 4 7 15 10 8 6 9 15 11 7 10
15 11 17 15 12 9 6 6 4 1 1 2 5 8 10 9 5 10 2 3 2 2 9 19 22 19 22 6 6 9 2 4 6 7 2 3 8 11 9 9 12 13 14 15 16 12 13
16 12 11 16 15 13 9 8 7 6 4 3 4 6 8 9 5 5 5 6 8 9 4 7 10 8 8 14 10 15 5 6 4 5 9 10 8 7 11 13 14 17 12 13 16 10 3
17 16 15 16 16 14 11 10 10 7 6 6 4 5 5 7 1 3 4 7 13 3 4 7 6 6 7 6 6 8 10 7 6 12 9 9 15 18 16 12 10 17 6 11 8 7 8
20 16 15 15 16 14 13 12 11 10 9 10 7 5 4 2 3 3 6 11 2 2 4 2 5 6 12 7 2 2 7 5 9 10 4 7 2 5 10 18 8 20 11 7 3 5 3
17 18 17 17 16 15 15 14 13 11 11 12 10 7 2 3 2 8 7 5 2 5 7 5 7 8 7 5 3 4 5 4 6 8 9 13 10 6 15 16 13 17 4 7 4 1 4
19 19 18 17 16 17 17 16 14 11 12 13 12 8 4 3 3 16 4 3 3 4 3 5 6 7 10 8 4 3 5 8 7 3 6 10 14 6 9 13 3 3 5 2 3 1 6
20 20 20 19 15 17 17 18 15 12 11 13 11 8 7 11 18 6 3 2 6 6 9 3 3 6 6 5 7 9 3 5 7 6 4 5 6 5 2 5 6 6 8 5 4 3 4
21 21 20 18 16 16 19 17 16 12 11 9 5 2 3 5 21 8 6 6 8 6 2 3 5 4 7 8 10 11 13 12 10 12 9 5 6 2 3 3 6 2 3 6 1 2 2
23 22 20 19 16 15 16 17 15 12 10 8 2 1 4 7 22 8 8 16 10 5 6 4 3 5 4 1 4 4 7 1 1 9 8 7 9 1 1 2 1 5 7 3 2 3 5
21 22 21 20 19 17 15 14 13 13 12 11 2 2 2 4 9 8 11 11 15 13 6 4 7 7 7 5 4 5 4 0 2 0 7 1 5 3 2 4 7 2 2 2 5 4 3
21 21 20 20 20 18 17 16 14 14 13 8 3 3 1 5 10 5 15 15 14 9 13 17 10 17 14 8 5 5 7 5 3 2 3 2 2 4 6 4 4 3 5 6 4 4 4
24 24 23 22 21 20 19 17 17 17 19 4 3 3 0 3 9 9 10 17 12 14 8 10 10 9 6 10 4 6 2 2 6 4 7 7 2 1 5 4 3 3 4 3 2 4 12
26 24 24 24 23 21 20 20 19 20 20 5 2 3 3 3 3 11 14 15 17 8 20 15 8 6 7 5 6 4 3 1 1 2 5 7 4 6 9 3 4 2 5 2 5 3 3
26 26 25 24 24 23 23 22 21 21 22 5 4 4 4 5 14 17 13 7 20 17 16 11 8 19 7 5 5 6 4 3 2 2 2 5 5 4 4 2 3 3 9 14 8 9 10
26 25 24 24 24 24 25 23 23 22 24 6 5 4 3 2 15 20 15 19 24 15 16 15 16 8 10 15 7 6 6 5 5 4 4 1 3 2 2 3 4 7 11 9 8 6 5
26 26 25 25 25 26 27 25 24 24 23 6 4 3 3 4 7 13 21 28 21 14 13 23 17 8 12 16 4 4 3 5 4 7 7 6 5 2 3 1 1 4 6 11 7 4 1
25 26 26 26 27 28 28 26 26 26 25 6 3 3 5 6 7 13 13 21 24 20 17 7 17 15 4 8 8 6 4 5 11 10 6 6 6 3 2 1 4 1 5 6 11 6 6
25 25 26 26 27 26 26 26 26 27 28 7 6 5 5 5 5 9 14 14 15 18 22 20 11 7 8 7 3 4 0 2 1 5 6 5 4 3 3 3 1 1 4 2 3 2 3
26 27 26 26 25 25 25 26 25 26 27 10 9 5 5 3 10 6 8 13 10 9 12 3 1 10 8 3 2 5 5 5 5 3 5 5 4 4 2 3 5 5 1 4 3 4 4
25 25 26 26 25 24 25 25 24 24 27 10 4 10 4 3 3 4 6 9 6 3 4 3 6 8 3 2 3 3 3 5 6 8 6 3 2 5 2 2 4 3 1 2 3 5 2
25 25 26 25 25 25 26 26 25 24 26 13 3 9 10 3 2 4 4 5 5 6 4 4 4 1 2 5 3 3 3 3 4 2 5 5 5 3 3 2 7 1 1 5 2 1 1
21 23 25 28 27 27 27 28 28 29 29 20 3 8 9 3 3 3 9 9 16 10 6 2 3 4 4 3 2 2 1 2 4 2 2 0 5 4 4 4 3 3 3 3 1 3 2
Wind_Direction
164 165 172 178 142 101 28 79 71 46 38 48 24 358 355 350 348 335 323 315 295 278 266 280 313 344 345 323 252 287 248 176 244 268 256 265 306 174 242 285 316 252 255 278 295 293 271
193 195 167 159 148 83 27 26 63 60 78 44 33 14 9 3 347 335 325 315 303 278 250 258 329 339 274 277 267 284 308 164 229 201 252 200 251 313 272 267 299 306 309 299 313 316 285
191 161 144 149 161 178 14 337 301 38 10 6 13 358 353 346 341 331 323 314 303 264 238 237 312 314 248 247 255 299 313 289 279 263 267 252 283 45 1 320 305 303 307 307 276 262 274
219 224 203 212 226 224 305 311 284 288 319 348 355 352 352 338 331 327 325 299 272 228 213 203 358 328 254 256 277 272 240 253 251 256 235 253 262 266 176 277 336 320 296 305 207 253 265
225 230 223 232 255 267 257 282 286 277 280 341 347 345 348 339 328 327 299 279 249 184 157 175 82 220 262 301 271 261 211 232 216 238 214 239 251 219 299 332 359 291 272 249 311 240 288
232 232 232 230 237 243 257 268 268 268 189 357 343 339 340 339 332 337 84 89 104 113 228 219 272 294 269 244 224 243 171 198 207 215 176 199 127 194 49 143 227 229 249 255 197 285 293
229 226 228 230 226 223 256 262 322 148 102 349 335 332 339 338 359 154 109 91 22 331 232 206 188 239 276 244 15 263 200 154 189 137 188 219 169 204 220 212 234 270 281 283 274 256 286
226 238 234 221 221 223 230 266 261 254 240 321 331 331 333 336 312 207 281 247 240 310 284 230 246 234 253 338 290 277 121 173 164 198 208 294 242 228 218 232 243 249 259 276 285 286 273
230 233 239 229 220 218 219 237 249 231 225 271 308 317 327 321 298 191 230 244 302 21 279 274 216 231 235 201 231 252 167 166 197 219 216 214 242 215 217 234 251 253 262 277 286 326 317
228 222 225 225 220 218 229 234 238 237 234 242 263 292 316 321 152 206 238 237 272 5 304 274 216 230 172 181 226 224 198 164 199 227 235 246 233 247 264 259 253 275 263 289 313 2 302
225 216 223 235 234 229 230 231 228 229 233 240 235 259 289 265 322 186 245 225 117 63 351 165 189 152 153 173 234 20 148 128 214 217 163 212 223 240 262 260 270 278 290 247 231 268 358
216 219 227 227 221 226 231 226 230 227 232 237 232 245 238 256 180 248 299 110 63 52 252 302 155 169 148 231 273 153 138 156 204 223 235 247 247 226 246 258 238 254 216 15 334 201 247
228 226 224 221 227 230 227 218 214 220 239 237 224 234 202 223 212 240 171 118 89 189 308 229 196 164 188 181 231 231 182 175 185 160 250 276 257 243 231 252 196 129 82 306 310 214 234
234 235 239 235 231 235 231 226 210 217 236 236 232 240 231 208 235 232 120 145 198 215 231 299 46 337 215 196 227 217 220 225 225 199 197 218 307 212 214 184 197 187 166 167 249 226 260
236 230 223 220 225 234 228 215 209 213 224 225 251 250 219 205 213 178 180 200 214 191 224 252 329 278 290 217 206 204 206 214 218 182 193 210 243 101 93 162 139 198 160 171 1 279 307
237 223 217 218 218 226 228 213 207 206 210 177 139 259 234 198 180 175 197 219 234 203 315 5 234 228 252 178 335 191 202 242 275 213 221 225 261 316 53 106 140 161 166 95 80 252 245
231 224 218 220 215 219 212 209 202 192 194 153 161 304 273 198 153 192 202 226 238 247 279 250 270 255 279 308 240 254 229 130 151 149 96 67 196 240 155 197 181 143 188 133 151 160 230
227 227 224 220 220 212 212 206 200 196 191 147 186 218 275 189 186 188 213 217 218 242 223 243 277 275 260 276 265 246 224 228 194 88 156 135 188 192 203 210 168 167 203 173 149 223 241
225 221 226 224 219 214 213 206 199 199 179 153 199 211 129 233 202 213 229 237 243 253 231 233 242 218 235 251 266 231 172 234 200 175 177 167 219 110 332 358 340 209 210 212 145 144 240
231 226 222 224 222 220 221 215 210 204 197 144 134 221 214 202 259 225 223 231 227 222 235 251 268 295 273 278 221 242 147 181 207 182 158 100 154 191 232 196 137 176 325 246 203 171 212
231 229 226 225 226 223 222 219 212 208 198 143 187 224 220 182 217 219 218 228 232 238 229 195 239 238 240 249 224 218 138 148 46 198 66 118 201 211 243 194 175 160 244 262 274 235 224
232 230 229 228 227 226 224 222 216 207 196 200 197 198 225 247 214 206 208 231 232 245 228 222 236 238 222 230 203 218 148 174 179 188 170 164 201 154 284 276 268 244 249 258 258 265 251
232 230 229 228 228 228 225 220 214 208 194 201 193 233 214 212 193 192 210 226 232 236 239 232 238 219 223 228 179 163 229 269 162 160 172 162 142 109 264 225 360 259 223 238 250 63 155
232 230 229 229 227 224 222 219 214 212 204 206 178 174 210 251 201 204 210 220 231 235 229 236 218 216 204 96 66 39 1 288 211 215 167 150 134 105 220 77 238 131 29 32 105 58 34
231 231 233 229 231 227 222 219 216 213 213 211 211 206 196 246 210 218 216 221 229 236 240 238 217 200 148 91 110 80 339 256 94 183 171 139 130 163 157 192 24 253 344 72 119 194 3
231 231 229 230 229 226 221 218 218 215 215 207 213 203 224 220 234 207 202 220 222 220 241 248 113 143 122 134 118 159 186 181 166 191 159 114 117 128 122 178 220 233 102 98 109 285 152
232 230 231 230 228 227 222 217 215 218 212 192 195 197 254 232 253 216 199 204 153 161 189 168 161 167 76 141 157 185 201 166 160 166 166 127 74 163 139 199 273 140 257 327 113 237 86
234 230 228 227 227 222 220 219 221 222 210 190 171 197 201 230 264 239 245 171 146 179 164 185 106 189 142 178 164 202 150 186 101 160 165 155 152 185 94 117 257 120 145 197 161 26 122
224 228 226 228 230 224 229 221 218 209 201 178 199 184 193 231 271 279 270 212 188 179 152 219 166 156 167 136 192 104 112 84 143 184 130 101 173 175 180 207 167 72 120 78 134 138 124